• In Deutschland
  • Länderverzeichnis
  • Für 7 Tage
  • Wassertemperatur
  • Satellitenkarten
  • Wetterkarte
  • Widgets
  • user-avatar
    Anmelden

    Stündliche Wetter Topka

    Heute, 23 April, Montag

    Zeit Temperatur Niederschläge Wind Luftdruck Luftfeuchtigkeit
    00:00 +7°C° 0 mm 3 m/S 698 mmHg 38%
    01:00 +5°C° 0 mm 3 m/S 698 mmHg 39%
    02:00 +5°C° 0 mm 3 m/S 698 mmHg 40%
    03:00 +5°C° 0 mm 3 m/S 698 mmHg 41%
    04:00 +4°C° 0 mm 3 m/S 698 mmHg 42%
    05:00 +6°C° 0 mm 4 m/S 698 mmHg 39%
    06:00 +7°C° 0 mm 5 m/S 698 mmHg 37%
    07:00 +9°C° 0 mm 5 m/S 698 mmHg 35%
    08:00 +12°C° 0 mm 5 m/S 698 mmHg 32%
    09:00 +14°C° 0 mm 6 m/S 698 mmHg 29%
    10:00 +16°C° 0 mm 6 m/S 698 mmHg 26%
    11:00 +17°C° 0 mm 6 m/S 698 mmHg 24%
    12:00 +19°C° 0 mm 6 m/S 697 mmHg 22%
    13:00 +20°C° 0 mm 5 m/S 697 mmHg 20%
    14:00 +20°C° 0 mm 5 m/S 697 mmHg 20%
    15:00 +20°C° 0 mm 4 m/S 697 mmHg 19%
    16:00 +20°C° 0 mm 4 m/S 697 mmHg 19%
    17:00 +18°C° 0 mm 3 m/S 696 mmHg 23%
    18:00 +16°C° 0 mm 2 m/S 696 mmHg 27%
    19:00 +14°C° 0 mm 2 m/S 696 mmHg 31%
    20:00 +13°C° 0 mm 2 m/S 696 mmHg 33%
    21:00 +12°C° 0 mm 2 m/S 696 mmHg 35%
    22:00 +10°C° 0 mm 2 m/S 696 mmHg 37%
    23:00 +10°C° 0 mm 2 m/S 696 mmHg 38%

    Morgen, 24 April, Dienstag

    Zeit Temperatur Niederschläge Wind Luftdruck Luftfeuchtigkeit
    00:00 +9°C° 0 mm 2 m/S 696 mmHg 40%
    01:00 +8°C° 0 mm 2 m/S 695 mmHg 42%
    02:00 +8°C° 0 mm 2 m/S 695 mmHg 43%
    03:00 +7°C° 0 mm 2 m/S 695 mmHg 44%
    04:00 +7°C° 0 mm 2 m/S 695 mmHg 45%
    05:00 +8°C° 0 mm 3 m/S 694 mmHg 42%
    06:00 +10°C° 0 mm 3 m/S 694 mmHg 38%
    07:00 +11°C° 0 mm 3 m/S 694 mmHg 35%
    08:00 +14°C° 0 mm 4 m/S 694 mmHg 31%
    09:00 +17°C° 0 mm 4 m/S 694 mmHg 26%
    10:00 +20°C° 0 mm 5 m/S 693 mmHg 22%
    11:00 +21°C° 0 mm 5 m/S 693 mmHg 19%
    12:00 +23°C° 0 mm 6 m/S 692 mmHg 17%
    13:00 +24°C° 0 mm 6 m/S 692 mmHg 15%
    14:00 +24°C° 0 mm 6 m/S 691 mmHg 15%
    15:00 +26°C° 0 mm 6 m/S 691 mmHg 15%
    16:00 +26°C° 0 mm 6 m/S 690 mmHg 15%
    17:00 +22°C° 0 mm 5 m/S 690 mmHg 18%
    18:00 +20°C° 0 mm 4 m/S 689 mmHg 21%
    19:00 +18°C° 0 mm 3 m/S 689 mmHg 25%
    20:00 +17°C° 0 mm 3 m/S 689 mmHg 27%
    21:00 +15°C° 0 mm 2 m/S 689 mmHg 29%
    22:00 +14°C° 0 mm 2 m/S 689 mmHg 30%
    23:00 +13°C° 0 mm 2 m/S 689 mmHg 32%

    übermorgen, 25 April, Mittwoch

    Zeit Temperatur Niederschläge Wind Luftdruck Luftfeuchtigkeit
    00:00 +12°C° 0 mm 2 m/S 690 mmHg 34%
    01:00 +11°C° 0 mm 3 m/S 690 mmHg 36%
    02:00 +10°C° 0 mm 3 m/S 690 mmHg 43%
    03:00 +9°C° 0 mm 3 m/S 691 mmHg 51%
    04:00 +9°C° 0 mm 3 m/S 691 mmHg 58%
    05:00 +9°C° 0 mm 3 m/S 692 mmHg 58%
    06:00 +10°C° 0 mm 4 m/S 692 mmHg 58%
    07:00 +11°C° 0 mm 4 m/S 693 mmHg 58%
    08:00 +12°C° 0 mm 4 m/S 693 mmHg 53%
    09:00 +13°C° 0 mm 4 m/S 693 mmHg 48%
    10:00 +14°C° 0 mm 4 m/S 694 mmHg 43%
    11:00 +15°C° 0 mm 4 m/S 694 mmHg 39%
    12:00 +17°C° 0 mm 4 m/S 694 mmHg 35%
    13:00 +18°C° 0 mm 4 m/S 694 mmHg 32%
    14:00 +18°C° 0 mm 3 m/S 693 mmHg 31%
    15:00 +18°C° 0 mm 3 m/S 693 mmHg 30%
    16:00 +19°C° 0 mm 3 m/S 693 mmHg 29%
    17:00 +17°C° 0 mm 2 m/S 693 mmHg 34%
    18:00 +15°C° 0 mm 2 m/S 692 mmHg 38%
    19:00 +13°C° 0 mm 1 m/S 692 mmHg 42%
    20:00 +12°C° 0 mm 1 m/S 692 mmHg 44%
    21:00 +12°C° 0 mm 2 m/S 692 mmHg 46%
    22:00 +10°C° 0 mm 2 m/S 692 mmHg 48%
    23:00 +9°C° 0 mm 2 m/S 692 mmHg 49%

    26 April, Donnerstag

    Zeit Temperatur Niederschläge Wind Luftdruck Luftfeuchtigkeit
    00:00 +9°C° 0 mm 2 m/S 692 mmHg 51%
    01:00 +9°C° 0 mm 3 m/S 692 mmHg 53%
    02:00 +8°C° 0 mm 3 m/S 692 mmHg 54%
    03:00 +8°C° 0 mm 3 m/S 692 mmHg 55%
    04:00 +8°C° 0 mm 3 m/S 692 mmHg 56%
    05:00 +9°C° 0 mm 3 m/S 692 mmHg 52%
    06:00 +11°C° 0 mm 3 m/S 693 mmHg 49%
    07:00 +13°C° 0 mm 3 m/S 693 mmHg 46%
    08:00 +16°C° 0 mm 3 m/S 693 mmHg 42%
    09:00 +18°C° 0 mm 3 m/S 693 mmHg 37%
    10:00 +20°C° 0 mm 3 m/S 694 mmHg 32%
    11:00 +21°C° 0 mm 3 m/S 694 mmHg 31%
    12:00 +23°C° 0 mm 2 m/S 693 mmHg 29%
    13:00 +25°C° 0 mm 2 m/S 693 mmHg 27%
    14:00 +25°C° 0 mm 2 m/S 693 mmHg 27%
    15:00 +25°C° 0 mm 2 m/S 693 mmHg 28%
    16:00 +25°C° 0 mm 2 m/S 693 mmHg 28%
    17:00 +23°C° 0 mm 2 m/S 692 mmHg 33%
    18:00 +20°C° 0 mm 2 m/S 692 mmHg 38%
    19:00 +18°C° 0 mm 2 m/S 692 mmHg 43%
    20:00 +16°C° 0 mm 2 m/S 691 mmHg 46%
    21:00 +15°C° 0 mm 2 m/S 691 mmHg 50%
    22:00 +14°C° 0 mm 2 m/S 691 mmHg 53%
    23:00 +13°C° 0 mm 2 m/S 690 mmHg 55%

    27 April, Freitag

    Zeit Temperatur Niederschläge Wind Luftdruck Luftfeuchtigkeit
    00:00 +13°C° 0 mm 1 m/S 690 mmHg 56%
    01:00 +12°C° 0 mm 1 m/S 690 mmHg 58%
    02:00 +11°C° 0 mm 1 m/S 689 mmHg 59%
    03:00 +11°C° 0 mm 1 m/S 689 mmHg 60%
    04:00 +10°C° 0 mm 1 m/S 689 mmHg 61%
    05:00 +10°C° 0 mm 2 m/S 689 mmHg 58%
    06:00 +13°C° 0 mm 2 m/S 690 mmHg 55%
    07:00 +13°C° 0 mm 3 m/S 690 mmHg 52%
    08:00 +14°C° 0 mm 3 m/S 690 mmHg 47%
    09:00 +17°C° 0 mm 4 m/S 690 mmHg 43%
    10:00 +19°C° 0 mm 5 m/S 690 mmHg 39%
    11:00 +20°C° 0 mm 5 m/S 690 mmHg 38%
    12:00 +20°C° 0 mm 5 m/S 690 mmHg 37%
    13:00 +21°C° 0 mm 5 m/S 690 mmHg 36%
    14:00 +20°C° 0 mm 6 m/S 690 mmHg 38%
    15:00 +18°C° 0 mm 7 m/S 690 mmHg 40%
    16:00 +17°C° 0 mm 8 m/S 690 mmHg 42%
    17:00 +15°C° 0 mm 7 m/S 691 mmHg 46%
    18:00 +14°C° 0 mm 6 m/S 691 mmHg 50%
    19:00 +12°C° 0 mm 5 m/S 692 mmHg 54%
    20:00 +11°C° 0 mm 4 m/S 692 mmHg 59%
    21:00 +10°C° 0 mm 3 m/S 692 mmHg 64%
    22:00 +10°C° 0 mm 3 m/S 692 mmHg 69%
    23:00 +9°C° 0 mm 3 m/S 692 mmHg 72%

    28 April, Samstag

    Zeit Temperatur Niederschläge Wind Luftdruck Luftfeuchtigkeit
    00:00 +8°C° 0 mm 2 m/S 692 mmHg 75%
    01:00 +8°C° 0 mm 2 m/S 692 mmHg 78%
    02:00 +7°C° 0 mm 2 m/S 692 mmHg 79%
    03:00 +7°C° 0 mm 2 m/S 692 mmHg 80%
    04:00 +7°C° 0 mm 2 m/S 692 mmHg 81%
    05:00 +7°C° 0 mm 2 m/S 692 mmHg 78%
    06:00 +7°C° 0 mm 3 m/S 692 mmHg 75%
    07:00 +8°C° 0 mm 3 m/S 692 mmHg 72%
    08:00 +9°C° 0,1 mm 3 m/S 692 mmHg 66%
    09:00 +10°C° 0,1 mm 3 m/S 692 mmHg 61%
    10:00 +11°C° 0,1 mm 4 m/S 691 mmHg 55%
    11:00 +10°C° 0,7 mm 4 m/S 691 mmHg 59%
    12:00 +8°C° 0,7 mm 5 m/S 691 mmHg 64%
    13:00 +5°C° 0,7 mm 6 m/S 690 mmHg 69%
    14:00 +5°C° 0,6 mm 6 m/S 691 mmHg 68%
    15:00 +5°C° 0,6 mm 6 m/S 692 mmHg 67%
    16:00 +4°C° 0,6 mm 6 m/S 692 mmHg 66%
    17:00 +5°C° 0,1 mm 5 m/S 693 mmHg 67%
    18:00 +4°C° 0,1 mm 3 m/S 694 mmHg 67%
    19:00 +5°C° 0,1 mm 2 m/S 694 mmHg 67%
    20:00 +5°C° 0 mm 1 m/S 695 mmHg 70%
    21:00 +4°C° 0 mm 1 m/S 695 mmHg 73%
    22:00 +3°C° 0 mm 1 m/S 695 mmHg 76%
    23:00 +3°C° 0 mm 1 m/S 695 mmHg 77%
    Mehr zeigen